Call of Duty: Black Ops III


Rare

Complete Hypocenter on Hardened, Veteran, or Realistic.

Achievement Unlocked By

Rank Gamertag Time Unlocked
1 Adam Rekt You17 May 2015 12:04 am
2 Father Zak 13375 Nov 2015 06:20 pm
3 x19Stargazer83x6 Nov 2015 12:13 am
4 Psych0 Matt936 Nov 2015 01:18 pm
5 GREY FOX H4L6 Nov 2015 06:55 pm
6 Schubban6 Nov 2015 08:03 pm
7 Manu 08156 Nov 2015 09:14 pm
8 YesConsiderably6 Nov 2015 10:33 pm
9 Scottish Sin6 Nov 2015 11:39 pm
10 Kokswijk7 Nov 2015 12:34 am
11 AGGY AggressoR7 Nov 2015 02:43 am
12 AGGY RegulatoR7 Nov 2015 02:43 am
13 FEAR LEGEND817 Nov 2015 02:43 am
14 v AggressoR x7 Nov 2015 02:43 am
15 DTC Diddy7 Nov 2015 05:58 am
16 LeBeauGringo7 Nov 2015 05:58 am
17 DGC Daxx7 Nov 2015 07:40 am
18 OvA Menace7 Nov 2015 07:58 am
19 Fury877 Nov 2015 10:06 am
20 xXxBOEINGxXx7 Nov 2015 10:40 am
21 davidruiz1207 Nov 2015 12:46 pm
22 NJDuke0077 Nov 2015 02:00 pm
23 antonio2PL7 Nov 2015 03:39 pm
24 Jaskier857 Nov 2015 05:27 pm
25 Dale Baldwin7 Nov 2015 05:33 pm
26 Bobby Lomas7 Nov 2015 05:49 pm
27 lnfected Cookie7 Nov 2015 05:49 pm
28 xx Kenshira xx7 Nov 2015 05:51 pm
29 Yosuke817 Nov 2015 06:15 pm
30 AssessedPobby7 Nov 2015 06:48 pm
31 Axiom Candy7 Nov 2015 07:07 pm
32 SaidaiKanpeki7 Nov 2015 07:28 pm
33 xJeff Jarrett7 Nov 2015 07:47 pm
34 Eagle 0ne7 Nov 2015 07:51 pm
35 D Boii 187 Nov 2015 07:56 pm
36 P1TUS7 Nov 2015 08:27 pm
37 BMF x360a7 Nov 2015 09:08 pm
38 Salsbar7 Nov 2015 09:23 pm
39 MMOD BillyMays7 Nov 2015 09:41 pm
40 Cobrabrew7 Nov 2015 10:19 pm
41 Brickybfc8 Nov 2015 12:34 am
42 Ex GHOSTface8 Nov 2015 01:02 am
43 Late55558 Nov 2015 01:30 am
44 Zaro Moramee8 Nov 2015 02:39 am
45 iVaLe8 Nov 2015 02:41 am
46 NRg TaCTiiCs x8 Nov 2015 03:15 am
47 DeferredKuni0348 Nov 2015 03:31 am
48 Reclaimer Rob8 Nov 2015 03:43 am
49 Matt DB878 Nov 2015 04:18 am
50 Alpha VAIN8 Nov 2015 04:54 am
51 VoraciousOak28 Nov 2015 05:24 am
52 I BlackDevilz I8 Nov 2015 06:58 am
53 Ctrl8 Nov 2015 07:10 am
54 x iLuNy x8 Nov 2015 08:22 am
55 venki5star8 Nov 2015 08:44 am
56 Cl0w3n8 Nov 2015 01:20 pm
57 DuFF m4n 19108 Nov 2015 01:36 pm
58 a44Special8 Nov 2015 04:32 pm
59 RoboFish 19878 Nov 2015 04:52 pm
60 POL ANGEL8 Nov 2015 05:21 pm
61 HackingSpartan88 Nov 2015 05:24 pm
62 AgriusRage8 Nov 2015 05:47 pm
63 x DragonBlade v8 Nov 2015 06:23 pm
64 QuiCkz Ninja8 Nov 2015 06:45 pm
65 ThexArBiteRxxx8 Nov 2015 07:21 pm
66 Sened118 Nov 2015 08:02 pm
67 Evil MarziPAiN8 Nov 2015 08:15 pm
68 Sunhize8 Nov 2015 09:02 pm
69 Zelo728 Nov 2015 09:04 pm
70 Magnificent X8 Nov 2015 10:00 pm
71 STONED 24 SEVEN8 Nov 2015 10:21 pm
72 SmilingAdvocate8 Nov 2015 10:35 pm
73 Ringmaster818 Nov 2015 10:35 pm
74 nuttywray8 Nov 2015 11:28 pm
75 qXDarkFighterXp9 Nov 2015 12:30 am
76 StrYker TN9 Nov 2015 12:50 am
77 pepenavy9 Nov 2015 01:05 am
78 FAILSAFE CGI9 Nov 2015 01:31 am
79 PyRo I Draxler9 Nov 2015 01:35 am
80 Paul Zap9 Nov 2015 02:18 am
81 Navy Gunner 049 Nov 2015 02:56 am
82 UnveiledArk9 Nov 2015 03:10 am
83 tpb fan9 Nov 2015 03:30 am
84 x Good0g x9 Nov 2015 03:42 am
85 ll LichKing ll9 Nov 2015 03:53 am
86 l UKz Shadow l9 Nov 2015 04:09 am
87 t4z09 Nov 2015 06:53 am
88 xR0NNI3x9 Nov 2015 07:22 am
89 I King Leo I9 Nov 2015 08:00 am
90 xVDESTROY3RVx9 Nov 2015 09:40 am
91 DJLiMiT6069 Nov 2015 09:52 am
92 BossKeloid6669 Nov 2015 12:02 pm
93 I MindTh3G4P I9 Nov 2015 01:17 pm
94 docfester9 Nov 2015 05:07 pm
95 shturmello9 Nov 2015 05:16 pm
96 Darfx909 Nov 2015 07:10 pm
97 master rob559 Nov 2015 07:33 pm
98 ZombiE7199 Nov 2015 08:57 pm
99 Zombified9 Nov 2015 09:39 pm
100 da02best9 Nov 2015 09:43 pm
101 KoMMyHucT Rus649 Nov 2015 10:02 pm
102 WaRz0r9 Nov 2015 11:01 pm
103 xI MrBubbles Ix9 Nov 2015 11:15 pm
104 FIAman19 Nov 2015 11:34 pm
105 Ix HoMeZ9 Nov 2015 11:38 pm
106 burntt0ad9 Nov 2015 11:58 pm
107 BensonReaper10 Nov 2015 12:53 am
108 aP ChainZ10 Nov 2015 01:48 am
109 Dank3st GM10 Nov 2015 02:30 am
110 GodZiirra10 Nov 2015 03:37 am
111 A Hollow Dread10 Nov 2015 03:51 am
112 alecrozay10 Nov 2015 04:14 am
113 weeArran2810 Nov 2015 08:04 am
114 FallenHorizons10 Nov 2015 09:18 am
115 XtazX D Kerz10 Nov 2015 03:04 pm
116 Thorall10 Nov 2015 04:23 pm
117 benjoni10 Nov 2015 05:29 pm
118 lFlN10 Nov 2015 09:44 pm
119 ey Digger10 Nov 2015 09:57 pm
120 Slayermoon10 Nov 2015 09:57 pm
121 patograso10 Nov 2015 10:45 pm
122 McSpark8610 Nov 2015 11:24 pm
123 fanta2Poche11 Nov 2015 12:24 am
124 HORROR RIDE11 Nov 2015 12:53 am
125 salvaaragon11 Nov 2015 01:10 am
126 AndreRegatieri11 Nov 2015 01:13 am
127 Ow Nitram11 Nov 2015 02:33 am
128 sE Shmelss11 Nov 2015 06:58 am
129 HeadChanger11 Nov 2015 07:38 am
130 MemoriesOfFinal11 Nov 2015 11:25 am
131 SeTh89611 Nov 2015 11:39 am
132 LeaderGhost00711 Nov 2015 02:26 pm
133 iSev3ns11 Nov 2015 02:58 pm
134 R4ZOR 94 PL11 Nov 2015 02:58 pm
135 xONLY INSANEx11 Nov 2015 03:07 pm
136 Orchii11 Nov 2015 03:54 pm
137 neomasaki11 Nov 2015 04:26 pm
138 WoodsMonk11 Nov 2015 05:06 pm
139 Mr Sup3rNova11 Nov 2015 05:22 pm
140 FTX Eisblut11 Nov 2015 05:58 pm
141 iMitchayy11 Nov 2015 07:01 pm
142 TOS Sunny11 Nov 2015 08:32 pm
143 xXPsychoSunnyXx11 Nov 2015 08:32 pm
144 Mr FantasNick11 Nov 2015 09:27 pm
145 II Dams29 II11 Nov 2015 10:17 pm
146 x l Santos11 Nov 2015 11:56 pm
147 VICIUS LIVE 7212 Nov 2015 12:23 am
148 amytashadumas9212 Nov 2015 02:33 am
149 krisguy78712 Nov 2015 08:28 am
150 mario546pl12 Nov 2015 01:32 pm
151 DxR12 Nov 2015 01:56 pm
152 Pierro le fou7112 Nov 2015 02:13 pm
153 ArmpitCreaseUK12 Nov 2015 02:29 pm
154 Jarkeles12 Nov 2015 04:21 pm
155 KRose21712 Nov 2015 04:44 pm
156 BlackNeo1312 Nov 2015 05:36 pm
157 fanta mit spezi12 Nov 2015 09:30 pm
158 JWilliamson9912 Nov 2015 09:37 pm
159 IVI FALCON IVI13 Nov 2015 01:23 am
160 Auresil13 Nov 2015 03:19 am
161 SublimeThugLife13 Nov 2015 04:01 am
162 Deluxe Vll13 Nov 2015 04:44 am
163 jewbacca66113 Nov 2015 06:54 am
164 EMFULZ13 Nov 2015 09:50 am
165 GUNDE4DZ0MB1E13 Nov 2015 11:09 am
166 czarekczarek13 Nov 2015 04:34 pm
167 WilliamTen0113 Nov 2015 10:44 pm
168 iiF14 Nov 2015 03:12 am
169 SAUDI PHANTOM14 Nov 2015 03:12 am
170 TF 141 Ghost SS14 Nov 2015 05:13 am
171 Marceparanoico214 Nov 2015 11:17 am
172 goldberg79 PL14 Nov 2015 01:28 pm
173 VirgulateBird914 Nov 2015 02:39 pm
174 UnawareBoss14 Nov 2015 05:52 pm
175 LinCov14 Nov 2015 06:25 pm
176 Sooper Fingers14 Nov 2015 10:52 pm
177 DaveKinetic14 Nov 2015 11:32 pm
178 dwat15 Nov 2015 02:42 am
179 MilkiWay98115 Nov 2015 08:27 am
180 Bewtee15 Nov 2015 10:27 am
181 MarineMorBius15 Nov 2015 01:01 pm
182 AngryManGamer15 Nov 2015 01:22 pm
183 Troudku4K15 Nov 2015 02:20 pm
184 Dontay15 Nov 2015 03:49 pm
185 XB1 samy15 Nov 2015 05:14 pm
186 HyprZomz15 Nov 2015 06:48 pm
187 Sm4rty9315 Nov 2015 07:38 pm
188 Manutoloko15 Nov 2015 08:00 pm
189 WebChimp UK15 Nov 2015 09:19 pm
190 PASHA THE PRO15 Nov 2015 09:52 pm
191 Holy Pigz15 Nov 2015 10:01 pm
192 TSR AcriDz 1G15 Nov 2015 10:38 pm
193 Gazmaster3D15 Nov 2015 11:16 pm
194 PauIo Escobar16 Nov 2015 12:07 am
195 uhcim16 Nov 2015 12:33 am
196 HEAVY IRE16 Nov 2015 12:41 am
197 LoboTheMerc16 Nov 2015 01:02 am
198 jionekanji16 Nov 2015 04:54 am
199 ox necron xo16 Nov 2015 10:32 am
200 Neverwinter ONE16 Nov 2015 06:36 pm
201 ONE Ov716 Nov 2015 08:07 pm
202 Gfuel Daddy16 Nov 2015 11:18 pm
203 CRT OTXAR17 Nov 2015 02:58 am
204 belgianplayer117 Nov 2015 03:03 am
205 gigi zack4117 Nov 2015 12:01 pm
206 xITACHI82x17 Nov 2015 08:50 pm
207 zI Blastoise17 Nov 2015 11:45 pm
208 DMenning518 Nov 2015 02:00 am
209 o BLazE ZerO o18 Nov 2015 03:19 am
210 MURD3RS GIRL18 Nov 2015 11:02 am
211 ImPiixL18 Nov 2015 08:45 pm
212 Lavindathar18 Nov 2015 08:45 pm
213 Love Wand18 Nov 2015 10:11 pm
214 WILL85119 Nov 2015 04:24 am
215 Markyshizzle19 Nov 2015 10:40 am
216 guerrierovidal19 Nov 2015 04:17 pm
217 djlune4419 Nov 2015 04:51 pm
218 Skorge Nukenin19 Nov 2015 05:57 pm
219 TBY2K719 Nov 2015 11:24 pm
220 xENVxGAMERSKREW20 Nov 2015 12:41 am
221 another D20 Nov 2015 09:55 pm
222 evil terrorr20 Nov 2015 10:49 pm
223 Little 3vil20 Nov 2015 10:49 pm
224 Garopotter21 Nov 2015 01:24 am
225 powka6221 Nov 2015 03:27 am
226 Hully21 Nov 2015 06:21 am
227 EarlyMedal21 Nov 2015 08:56 pm
228 PACOFOU21 Nov 2015 10:07 pm
229 Arktech Builder21 Nov 2015 10:18 pm
230 TMS xBerusian22 Nov 2015 12:39 am
231 Astemiolupin00722 Nov 2015 10:28 am
232 Titan Breek22 Nov 2015 11:42 am
233 xTCx22 Nov 2015 08:37 pm
234 Fishyy23 Nov 2015 04:48 am
235 GAM3R D5523 Nov 2015 08:08 pm
236 dannyp110124 Nov 2015 02:11 am
237 Kiwasad24 Nov 2015 07:14 am
238 ProjectJeff8524 Nov 2015 08:31 am
239 DareBear69ist24 Nov 2015 10:02 am
240 BL4Z1NG Z0MB1324 Nov 2015 02:10 pm
241 Major Nando24 Nov 2015 03:13 pm
242 qG Lecca24 Nov 2015 09:07 pm
243 Leocave25 Nov 2015 02:19 am
244 crimSYN Paradox25 Nov 2015 03:45 am
245 ZOMBINOX25 Nov 2015 07:59 am
246 PuRe Pretzel25 Nov 2015 08:14 am
247 Nod Nolan25 Nov 2015 05:06 pm
248 Jeremux25 Nov 2015 05:25 pm
249 A7X Unleashed25 Nov 2015 08:21 pm
250 Epic Louie26 Nov 2015 12:46 am
251 FPSnoob201226 Nov 2015 05:26 am
252 Bwr Honeybadger26 Nov 2015 05:47 am
253 joairess26 Nov 2015 07:24 am
254 XIX Plague27 Nov 2015 12:39 am
255 Playing God 9427 Nov 2015 09:29 pm
256 XGC EMINENCE XC27 Nov 2015 10:27 pm
257 Joeyddr27 Nov 2015 11:47 pm
258 DymkulPL28 Nov 2015 04:36 pm
259 Psyk0028 Nov 2015 06:30 pm
260 superjek29 Nov 2015 01:46 am
261 Frostcrest29 Nov 2015 03:56 am
262 Juicyjams29 Nov 2015 04:54 am
263 HalftimeJoe29 Nov 2015 05:54 am
264 So many Bears29 Nov 2015 10:33 am
265 DeadSpace207629 Nov 2015 10:55 am
266 lBornTroublez29 Nov 2015 02:47 pm
267 KMDeacon29 Nov 2015 04:37 pm
268 Txort29 Nov 2015 05:20 pm
269 heart beating29 Nov 2015 11:46 pm
270 USA BEST 1030 Nov 2015 09:25 am
271 RikyRoby30 Nov 2015 05:12 pm
272 NickTheGooner1430 Nov 2015 11:43 pm
273 REPOMAN NL1 Dec 2015 01:08 am
274 xForeverDecay1 Dec 2015 01:23 am
275 xD 2Bad4You2 Dec 2015 09:31 pm
276 ping1822 Dec 2015 11:13 pm
277 Blisle834 Dec 2015 12:38 am
278 MAYPORT 9044 Dec 2015 02:35 am
279 DA BLnTMaSTA4204 Dec 2015 05:23 am
280 MedoSaeid EGY4 Dec 2015 08:05 am
281 Lubos19914 Dec 2015 03:12 pm
282 FusionCC44 Dec 2015 09:37 pm
283 CrAzY s3rG1aM04 Dec 2015 11:34 pm
284 Starkssx5 Dec 2015 12:03 am
285 scozzard5 Dec 2015 01:00 am
286 AlitoRuless5 Dec 2015 05:03 am
287 KayyDubbzz5 Dec 2015 05:51 am
288 Selture5 Dec 2015 09:59 am
289 SN4K3KILL3R575 Dec 2015 12:38 pm
290 TrYkzZ HD5 Dec 2015 03:33 pm
291 Exoldy5 Dec 2015 06:08 pm
292 wild kitty B5 Dec 2015 08:10 pm
293 Portgas D Rouge5 Dec 2015 11:53 pm
294 UndulateEmu6386 Dec 2015 02:27 am
295 NexUsReplicantZ6 Dec 2015 03:01 am
296 iBLeSs3d6 Dec 2015 04:18 am
297 CiregNovak6 Dec 2015 06:58 am
298 KingRaptor IXXI6 Dec 2015 01:15 pm
299 Pandora Gott6 Dec 2015 09:02 pm
300 Tyler Durden SP6 Dec 2015 11:03 pm
301 Guipuchi7 Dec 2015 12:18 am
302 XENMIC7 Dec 2015 02:53 am
303 elad727 Dec 2015 09:20 pm
304 II Al Beebak II7 Dec 2015 09:20 pm
305 Comrade Vodkin8 Dec 2015 12:34 am
306 DentedClover8 Dec 2015 01:54 pm
307 iHeartSlampigs9 Dec 2015 05:44 am
308 Mrleprime9 Dec 2015 08:33 pm
309 IzaacJ9 Dec 2015 11:52 pm
310 Mr SynysTerrr10 Dec 2015 04:08 am
311 Detainer10 Dec 2015 04:30 am
312 Jay Wh1zz10 Dec 2015 12:40 pm
313 Itzz Sh0wt1m310 Dec 2015 11:14 pm
314 LeeEreBey11 Dec 2015 08:11 pm
315 XLT Knucklesx11 Dec 2015 08:27 pm
316 Papa Maister12 Dec 2015 04:47 pm
317 dII Blaze IIb12 Dec 2015 07:48 pm
318 Dr Feelgood 47412 Dec 2015 11:54 pm
319 hostile carrot13 Dec 2015 12:05 am
320 AltBlackarrow13 Dec 2015 06:50 am
321 DS V00d0013 Dec 2015 12:38 pm
322 zAlexG5513 Dec 2015 04:21 pm
323 BRC Jedi Master14 Dec 2015 02:39 am
324 BRM WebFalcon14 Dec 2015 02:39 am
325 MadxRod14 Dec 2015 12:13 pm
326 ATC Psyko14 Dec 2015 05:32 pm
327 MASS x Flamez15 Dec 2015 10:59 pm
328 All Kung No Fu16 Dec 2015 03:39 am
329 BroknPlaya16 Dec 2015 03:50 am
330 DarthK1ng816 Dec 2015 02:03 pm
331 baum2k17 Dec 2015 08:41 pm
332 paosunny18 Dec 2015 08:23 am
333 Chronic Soldier18 Dec 2015 04:48 pm
334 Rhark18 Dec 2015 05:04 pm
335 Biohazard132019 Dec 2015 10:09 pm
336 xCursiNxMayheMx20 Dec 2015 04:27 am
337 ODiaz8620 Dec 2015 08:00 am
338 zRedHawk20 Dec 2015 06:54 pm
339 Waughy21 Dec 2015 09:47 am
340 Raikoh Sanshiro21 Dec 2015 05:08 pm
341 MAPO7821 Dec 2015 10:57 pm
342 Evil Duck ftw22 Dec 2015 10:38 am
343 CoolMortinator22 Dec 2015 12:38 pm
344 Maymayfei22 Dec 2015 05:48 pm
345 Thyago Rezier22 Dec 2015 05:58 pm
346 A RAND0M SHARK22 Dec 2015 08:00 pm
347 ooTheTW1noo22 Dec 2015 08:00 pm
348 xD3m0n K1ngx23 Dec 2015 03:58 am
349 dcrw624 Dec 2015 08:23 am
350 msdmario25 Dec 2015 01:31 am
351 tjkill0925 Dec 2015 10:57 am
352 Forever2Thee1525 Dec 2015 11:04 am
353 Lara Croft 198926 Dec 2015 01:22 am
354 Podadera26 Dec 2015 01:29 am
355 sW quanTiK26 Dec 2015 11:55 am
356 GypSy MiNe5626 Dec 2015 05:39 pm
357 artie62226 Dec 2015 08:32 pm
358 FabioRLSouza26 Dec 2015 11:06 pm
359 JLODIE27 Dec 2015 04:17 am
360 TxFloppy27 Dec 2015 01:47 pm
361 NeOz Akirow27 Dec 2015 05:30 pm
362 TK DARKSYDE 66627 Dec 2015 10:30 pm
363 deadpeoplerock28 Dec 2015 02:08 am
364 MudkipShiny28 Dec 2015 06:56 am
365 TeariestPiano6728 Dec 2015 07:44 am
366 Evo1328 Dec 2015 10:45 pm
367 SDREW4429 Dec 2015 03:01 am
368 legendaryash9129 Dec 2015 03:28 am
369 GLOVEZ 1 2 329 Dec 2015 05:13 pm
370 WizZy PL29 Dec 2015 05:37 pm
371 Sonic Salies29 Dec 2015 05:57 pm
372 BabyishDuck29 Dec 2015 06:20 pm
373 oOIanCOo29 Dec 2015 08:21 pm
374 Amortis29 Dec 2015 09:25 pm
375 badman8329 Dec 2015 11:45 pm
376 Punished Lowtek30 Dec 2015 05:22 pm
377 Zykari30 Dec 2015 07:40 pm
378 Kidmoney8731 Dec 2015 04:56 am
379 HoOLiGan SP31 Dec 2015 09:42 pm
380 Osirian081 Jan 2016 04:27 am
381 InfernoJoe1 Jan 2016 01:18 pm
382 MC0REBE1 Jan 2016 05:52 pm
383 The Outcast21 Jan 2016 09:21 pm
384 Furious WJO1 Jan 2016 11:09 pm
385 AWX Dream12 Jan 2016 12:16 am
386 BattedBam972 Jan 2016 12:57 am
387 NAVIJA2 Jan 2016 02:38 am
388 Shortyyah2 Jan 2016 02:56 am
389 Snicker912 Jan 2016 05:07 am
390 D3VILVADER2 Jan 2016 01:17 pm
391 Vice Razerr3 Jan 2016 10:11 am
392 BOBAH BETEPAH3 Jan 2016 11:21 am
393 ytska3 Jan 2016 08:37 pm
394 Tatey3 Jan 2016 08:48 pm
395 XO Snatchy3 Jan 2016 09:54 pm
396 Clown Syndr0me4 Jan 2016 12:55 am
397 ArnaldoDK4 Jan 2016 01:01 am
398 Eg3rt4 Jan 2016 01:45 pm
399 Spartan24914 Jan 2016 05:29 pm
400 RANGER Zulu4 Jan 2016 05:44 pm
401 OnG Vergils5 Jan 2016 01:17 am
402 yippsiloon5 Jan 2016 05:59 am
403 lRX75 Jan 2016 07:40 am
404 SHSL Fantapube5 Jan 2016 08:43 am
405 xPBRx Joker5 Jan 2016 08:18 pm
406 TAAAAAAAAAAAANK6 Jan 2016 10:35 pm
407 Bahram B6 Jan 2016 10:57 pm
408 JINETE N0CTURN07 Jan 2016 08:21 pm
409 NicoPaura7 Jan 2016 10:59 pm
410 TS2S8 Jan 2016 08:43 am
411 InkedUp8 Jan 2016 05:07 pm
412 Rec0L8 Jan 2016 09:25 pm
413 llKoull9 Jan 2016 10:32 am
414 RoG Midnight9 Jan 2016 09:50 pm
415 lickAkAbA10 Jan 2016 03:52 pm
416 Show Guy Ya Pie10 Jan 2016 04:11 pm
417 Grant Horsewood11 Jan 2016 12:46 am
418 killerbeastly11 Jan 2016 06:20 pm
419 Bellwood11 Jan 2016 06:46 pm
420 MrSlyFoxRSA11 Jan 2016 11:01 pm
421 SuperStarbomb12 Jan 2016 08:13 am
422 Ryan Uzumaki 2212 Jan 2016 10:25 pm
423 CerDeRus 2ix13 Jan 2016 03:54 pm
424 JahazielVela14 Jan 2016 04:01 am
425 Jirulka198414 Jan 2016 03:36 pm
426 Seanshadow15 Jan 2016 07:22 pm
427 Denizes15 Jan 2016 08:23 pm
428 Snoof36015 Jan 2016 11:26 pm
429 Ceno15 Jan 2016 11:50 pm
430 JanSoso17 Jan 2016 01:17 am
431 Hanishani17 Jan 2016 06:27 pm
432 Argentum04718 Jan 2016 05:26 am
433 GKevin18 Jan 2016 03:34 pm
434 Falchion1718 Jan 2016 11:58 pm
435 sharkbiscuit7919 Jan 2016 12:16 am
436 garrett00719 Jan 2016 04:51 am
437 IcyEnemy19 Jan 2016 11:22 am
438 Nezvya19 Jan 2016 02:47 pm
439 WileyOldFox20 Jan 2016 12:39 pm
440 AJSABamboe21 Jan 2016 11:53 pm
441 gamerboyTHXtss22 Jan 2016 07:25 am
442 BecksRo22 Jan 2016 12:50 pm
443 West40822 Jan 2016 07:19 pm
444 Luna Spectrum24 Jan 2016 11:19 am
445 chaoz2eyez24 Jan 2016 01:23 pm
446 Mind Bender8125 Jan 2016 12:25 am
447 lovetomakeitwet25 Jan 2016 02:26 am
448 Mephisto4thewin25 Jan 2016 03:01 am
449 Priit325 Jan 2016 03:22 pm
450 candy cowboy25 Jan 2016 09:57 pm
451 Fictional Words25 Jan 2016 10:10 pm
452 Big Juan Ker28 Jan 2016 05:21 pm
453 MarlloStanfield28 Jan 2016 08:35 pm
454 Mistwalker4529 Jan 2016 02:13 am
455 CID ARNEL29 Jan 2016 10:02 am
456 xL3N1N29 Jan 2016 04:37 pm
457 Tcheflash29 Jan 2016 11:26 pm
458 Mistress Elv31 Jan 2016 07:13 pm
459 EMSOBAKrus1 Feb 2016 06:19 pm
460 SiMoN iZ AcE1 Feb 2016 09:58 pm
461 FASC19743 Feb 2016 12:51 am
462 ohuevshiy3 Feb 2016 04:24 pm
463 InferiorTrash643 Feb 2016 07:07 pm
464 Demonik Caveman4 Feb 2016 12:08 am
465 ziond19984 Feb 2016 12:55 am
466 Toddy STFC5 Feb 2016 04:19 pm
467 DaVor 735 Feb 2016 06:10 pm
468 XSTREAMSHOOTER5 Feb 2016 11:40 pm
469 VeryAngryFather6 Feb 2016 12:24 am
470 Whisperin Clown6 Feb 2016 05:56 am
471 PneumaticTooth7 Feb 2016 05:16 am
472 RustyHandgun8 Feb 2016 10:20 pm
473 ukinspro9 Feb 2016 09:26 pm
474 xdanza10 Feb 2016 04:47 pm
475 Squiggas Reign12 Feb 2016 05:55 am
476 oRA1D3No13 Feb 2016 03:57 am
477 DiabloNeros13 Feb 2016 04:08 pm
478 COMMANDO 113813 Feb 2016 04:08 pm
479 jimpanse197613 Feb 2016 05:42 pm
480 Keazero13 Feb 2016 05:42 pm
481 Psparky2714 Feb 2016 07:19 pm
482 blue4sky15 Feb 2016 04:35 pm
483 is that Hydro17 Feb 2016 02:19 am
484 Le Pinkest Sock17 Feb 2016 03:49 am
485 Patton DK17 Feb 2016 06:30 pm
486 TheNutman6932119 Feb 2016 08:34 pm
487 GRADUS19 Feb 2016 08:45 pm
488 AL3XHOUND19 Feb 2016 09:35 pm
489 Aijo20 Feb 2016 09:44 am
490 Lordccortes21 Feb 2016 03:57 am
491 Rata de cloaca122 Feb 2016 07:49 pm
492 ABD JITAN X22 Feb 2016 09:46 pm
493 WoodsMussel925323 Feb 2016 12:12 pm
494 kurohigee23 Feb 2016 10:05 pm
495 xWJaguar29Wx23 Feb 2016 11:49 pm
496 momanek66626 Feb 2016 12:40 am
497 Segaswirl26 Feb 2016 05:43 pm
498 TheDragonClaw9726 Feb 2016 08:56 pm
499 Max1m9427 Feb 2016 01:17 pm
500 Immortality2028 Feb 2016 12:35 am
501 MERAUDER HC28 Feb 2016 02:35 am
502 RAMPAGE I RIP I28 Feb 2016 09:42 pm
503 VoteYES4Weed129 Feb 2016 04:17 am
504 robilein29 Feb 2016 11:02 pm
505 wuruhi1 Mar 2016 10:52 am
506 FanxticaL1 Mar 2016 01:12 pm
507 SKEPUR1 Mar 2016 08:13 pm
508 qione2 Mar 2016 05:21 pm
509 Wuikas85bcn3 Mar 2016 07:16 pm
510 Hectic Triumph4 Mar 2016 03:19 am
511 Russellwar4 Mar 2016 06:01 pm
512 porshe3000turbo4 Mar 2016 08:42 pm
513 WheatleySaint124 Mar 2016 10:33 pm
514 Fuzzs5 Mar 2016 02:05 am
515 MikeViking5 Mar 2016 05:48 pm
516 Antipaladino6 Mar 2016 03:51 pm
517 Blood Inside7 Mar 2016 11:43 pm
518 Emperor Bohe10 Mar 2016 06:39 am
519 DephoZ11 Mar 2016 03:11 am
520 ImJustAmir12 Mar 2016 10:16 am
521 DooMgodE1M112 Mar 2016 08:32 pm
522 Major EsNeck13 Mar 2016 12:31 am
523 majidazad14 Mar 2016 02:22 pm
524 wbs 10118 Mar 2016 02:29 am
525 Youtube View18 Mar 2016 08:47 pm
526 kucis8919 Mar 2016 07:38 am
527 Zedymieon7723 Mar 2016 04:36 am
528 AUT Ov3rrid327 Mar 2016 06:22 pm
529 Thanat0sZA27 Mar 2016 09:13 pm
530 vB chacuas Mx27 Mar 2016 11:14 pm
531 HJW29 Mar 2016 08:47 am
532 BradleyBear19030 Mar 2016 06:32 pm
533 Mistake BRO31 Mar 2016 05:21 pm
534 littlefish ng531 Mar 2016 05:59 pm
535 Fuzation1 Apr 2016 01:49 am
536 Bond OO73 Apr 2016 02:09 am
537 Kie Wee3 Apr 2016 09:27 pm
538 UltimateZenith15 Apr 2016 09:48 pm
539 maciekhhhh7 Apr 2016 06:04 pm
540 SMBonMV42O8 Apr 2016 09:20 am
541 ShadowRage8268 Apr 2016 07:41 pm
542 Xb0ss8 Apr 2016 11:58 pm
543 Buckmarley15510 Apr 2016 01:10 am
544 Jesto9310 Apr 2016 07:39 pm
545 SAFETJUGO10 Apr 2016 11:33 pm
546 Nazs logic12 Apr 2016 06:04 am
547 ckPbIta913 Apr 2016 07:43 am
548 Patriot6510819 Apr 2016 08:11 am
549 Alexio09221 Apr 2016 05:11 am
550 Silxx25 Apr 2016 02:22 pm
551 x Silxx x25 Apr 2016 02:22 pm
552 WeaklierData64028 Apr 2016 10:14 am
553 SHEZON28 Apr 2016 09:49 pm
554 NeoSim11729 Apr 2016 03:47 pm
555 Xx 1128 xX30 Apr 2016 10:18 am
556 Living Legends1 May 2016 10:38 am
557 jarnoer981 May 2016 01:02 pm
558 BIG P3TE3 May 2016 10:26 pm
559 frapperdog HD4 May 2016 12:05 am
560 Saxzor13375 May 2016 10:08 am
561 Great1 Achilles5 May 2016 08:05 pm
562 MGTOW GAMER5 May 2016 08:05 pm
563 efstratios6 May 2016 11:37 pm
564 Pablopictures7 May 2016 02:03 pm
565 oscarcanet7 May 2016 04:44 pm
566 canidmad8 May 2016 07:03 pm
567 Techy8711 May 2016 07:50 am
568 That Dish Guy11 May 2016 07:50 am
569 Johanm311 May 2016 05:38 pm
570 L1fe One14 May 2016 07:48 pm
571 KoNiKo17 May 2016 07:26 pm
572 Shadow4Kill18 May 2016 02:27 pm
573 DENIS KRIKUN19 May 2016 10:52 pm
574 InformalWheel3421 May 2016 08:12 pm
575 bloodbrawl21 May 2016 08:44 pm
576 Crebsy24 May 2016 10:07 am
577 Rishalin24 May 2016 04:47 pm
578 PANMAN123426 May 2016 04:22 pm
579 yZZi Roxx28 May 2016 02:01 pm
580 RhuanCarvalho 728 May 2016 04:49 pm
581 ASKARI Mac29 May 2016 09:30 pm
582 shotakoe31 May 2016 10:50 pm
583 DuctapeAssassin2 Jun 2016 04:02 am
584 DJ DEXTA3 Jun 2016 01:40 pm
585 Ogheta5 Jun 2016 11:12 am
586 CptEhsan6 Jun 2016 10:06 pm
587 Mikhail Krauser9 Jun 2016 07:38 am
588 LCDS Titeuf9 Jun 2016 08:05 am
589 Michele e Andre16 Jun 2016 11:10 pm
590 MERZiCiDE17 Jun 2016 06:12 am
591 K1000Y19 Jun 2016 08:27 pm
592 Birdie Gamer20 Jun 2016 07:04 pm
593 RRpLayy24 Jun 2016 09:12 pm
594 KN Straw27 Jun 2016 02:40 am
595 Omisake29 Jun 2016 06:44 am
596 GhostTawer29 Jun 2016 05:15 pm
597 I Cannot Odd30 Jun 2016 01:55 am
598 Italian Sniperz3 Jul 2016 07:26 pm
599 SymbianRulez3 Jul 2016 10:42 pm
600 dresday89564 Jul 2016 07:44 am
601 HaVoc x nuno4 Jul 2016 11:19 pm
602 M4STERMNM8 Jul 2016 04:41 am
603 LOLIPOPCHAINAW8 Jul 2016 10:25 pm
604 NiftySpy089 Jul 2016 02:25 pm
605 H2O Psy13 Jul 2016 10:28 am
606 L H4RT16 Jul 2016 05:03 am
607 My Cute Dog Max20 Jul 2016 08:39 am
608 GreenLeg10ner21 Jul 2016 08:07 am
609 CDP Style22 Jul 2016 06:37 pm
610 TheRealPH23 Jul 2016 03:40 pm
611 xSinisterStrike24 Jul 2016 04:20 am
612 Loli N3k024 Jul 2016 04:44 am
613 xHybrid Shadowx26 Jul 2016 12:31 am
614 xXSOULSHAK3RXx26 Jul 2016 01:19 am
615 II BlG BOSS II26 Jul 2016 09:57 am
616 SinisterPledge26 Jul 2016 09:58 am
617 Sovereign xx27 Jul 2016 04:40 pm
618 Assassin Corvo31 Jul 2016 12:18 pm
619 TATTOOH3AD673 Aug 2016 06:07 pm
620 wakkosolis4 Aug 2016 03:52 am
621 MrFreakzilla6 Aug 2016 02:45 pm
622 FULLCHAINGANG37 Aug 2016 02:48 am
623 claurance7 Aug 2016 03:43 pm
624 Rachitmayhem10 Aug 2016 03:51 pm
625 StrongDieTwice10 Aug 2016 05:15 pm
626 jalanpuu18 Aug 2016 03:20 pm
627 tmitch1818 Aug 2016 07:38 pm
628 TioK1ll3r20 Aug 2016 07:39 pm
629 Mideus Rav21 Aug 2016 08:28 am
630 Evildream025 Aug 2016 04:54 pm
631 xP3RF3CTiONi5Tx27 Aug 2016 08:51 pm
632 temaonline28 Aug 2016 06:28 pm
633 xXNikoPLXx28 Aug 2016 08:43 pm
634 Coopaldo31 Aug 2016 10:20 am
635 Hacker0931 Sep 2016 09:22 am
636 LucasRSouza2 Sep 2016 03:43 am
637 Sa7yLa7m10 Sep 2016 10:51 pm
638 P1SelectStart11 Sep 2016 04:00 am
639 SGT RECOIL9911 Sep 2016 04:19 am
640 DarkSynopsis11 Sep 2016 10:26 am
641 PRO PlayZ11 Sep 2016 01:37 pm
642 MaZZeoPL11 Sep 2016 11:01 pm
643 FoookinKneelers17 Sep 2016 06:04 am
644 D3ATHSAINTZ17 Sep 2016 06:55 pm
645 KluckMyDuck19 Sep 2016 02:03 am
646 Macaco Suspeito20 Sep 2016 02:59 pm
647 Judge Homer20 Sep 2016 10:08 pm
648 Major Iris23 Sep 2016 10:59 pm
649 Lady Milotic29 Sep 2016 04:12 pm
650 Spiddek30 Sep 2016 03:41 pm
651 Eskobar M921 Oct 2016 01:02 pm
652 FabianGG19861 Oct 2016 10:29 pm
653 IBR4z9 Oct 2016 12:52 pm
654 N IN JA DivuozZ9 Oct 2016 12:52 pm
655 greenxb11 Oct 2016 01:37 pm
656 kobra11098812 Oct 2016 12:39 pm
657 Ykhi16 Oct 2016 01:32 pm
658 XDownTown415X16 Oct 2016 03:02 pm
659 Txusparner18 Oct 2016 09:51 pm
660 NuDiXs19 Oct 2016 06:11 pm
661 StealthSpartanZ20 Oct 2016 02:41 am
662 SUPERGLITCHMAN28 Oct 2016 12:22 am
663 DarthRyuu28 Oct 2016 03:34 pm
664 Burt Wang6 Nov 2016 10:35 am
665 Grey Delta7 Nov 2016 06:40 pm
666 SuperElliotBro9 Nov 2016 01:17 am
667 Irish Legend v412 Nov 2016 01:54 am
668 DementedSquire712 Nov 2016 11:32 pm
669 ATCS20 Nov 2016 08:44 pm
670 tedmaul7121 Nov 2016 10:41 pm
671 AsW I BreizHii22 Nov 2016 08:37 pm
672 PROGRESYWNY28 Nov 2016 08:46 pm
673 Earmack3 Dec 2016 02:52 pm
674 BarefootBurner13 Dec 2016 06:16 am
675 MARCELFiNKde17 Dec 2016 01:48 am
676 SW XACEX17 Dec 2016 09:54 pm
677 Karllan18 Dec 2016 06:21 pm
678 Sergeant Fury22 Dec 2016 03:42 am
679 TynnoLocatelli23 Dec 2016 12:09 am
680 xYx Eclipse xYx30 Dec 2016 06:12 pm
681 Rebel1Devil31 Dec 2016 10:39 am
682 Lord Nihilus4 Jan 2017 09:06 pm
683 AlligatoRY7 Jan 2017 11:47 am
684 Stefan 308 Jan 2017 03:12 pm
685 o0Wrath0fGod0o15 Jan 2017 02:53 am
686 II N0 Scope45 I21 Jan 2017 03:31 am
687 License to Kill21 Jan 2017 03:31 am
688 Vitiated121 Jan 2017 03:31 am
689 Chico Supr3me24 Jan 2017 12:47 am
690 MARCELO 0727 Jan 2017 04:33 pm
691 Zaki HUN31 Jan 2017 05:57 am
692 RefaSama12 Feb 2017 08:16 am
693 SquirrelBibi12 Feb 2017 02:59 pm
694 laurts12 Feb 2017 06:05 pm
695 MaurizioSL17 Feb 2017 10:01 pm
696 dafuture198222 Feb 2017 02:53 am
697 Arch1k2 Mar 2017 08:29 pm
698 imperiumSG3 Mar 2017 04:44 am
699 HereComesChris7 Mar 2017 03:17 am
700 twinkie43119 Mar 2017 06:52 pm
701 Scherzengel20 Mar 2017 12:55 pm
702 DeepInTheSouth20 Mar 2017 04:26 pm
703 PalmaCORP23 Mar 2017 07:39 pm
704 RockStar9812127 Mar 2017 04:44 am
705 nightwing729655 Apr 2017 03:29 pm
706 Precise Lee7 Apr 2017 10:32 pm
707 TheCapedCookie12 Apr 2017 11:23 pm
708 ISullyI2622 Apr 2017 12:39 pm
709 thatnathandude23 Apr 2017 05:59 am
710 Walicki3424 Apr 2017 07:23 pm
711 SjaccoPopino29 Apr 2017 10:17 pm
712 v0van1455 May 2017 07:31 pm
713 Ghostlywoofs7 May 2017 11:22 pm
714 GP133312 May 2017 12:22 am
715 FB GameFreak nz20 May 2017 10:37 am
716 Sir Dejv21 May 2017 07:56 pm
717 AFancyPorcupine22 May 2017 12:55 am
718 jord01024 May 2017 09:34 am
719 Endgame30 May 2017 12:13 am
720 Silenced Nexus30 May 2017 12:13 am
721 iXiK13R4NiXi30 May 2017 12:56 pm
722 Chakie30 May 2017 10:21 pm
723 faelveloso861 Jun 2017 11:19 pm
724 turtleguy55616 Jun 2017 05:32 am
725 SirPsp22 Jun 2017 08:09 am
726 xelxh2229 Jun 2017 06:46 am
727 Gensui Akainu3 Jul 2017 09:16 pm
728 Jimmy Chang 2310 Jul 2017 12:43 am
729 Black Popaye13 Jul 2017 11:34 am
730 Stilniy Killer19 Jul 2017 04:55 pm
731 Depeche723 Aug 2017 08:14 pm
732 Scrent SAM5 Aug 2017 11:42 pm
733 V81P7612 Aug 2017 09:47 am
734 Kamagii20 Aug 2017 03:22 am
735 derwin2k23 Aug 2017 12:44 am
736 KofDelightZA2 Sep 2017 07:33 pm
737 MLG CinnaBunny23 Sep 2017 03:13 am
738 L1ghtn1ngScopez23 Sep 2017 02:04 pm
739 Nc nuXio27 Sep 2017 03:08 pm
740 NeilosChew730 Sep 2017 12:32 pm
741 ll MRMUFFIN ll1 Oct 2017 02:57 pm
742 AkenoLP10 Oct 2017 12:03 am
743 Rada2777727 Oct 2017 02:51 pm
744 Xrcize28 Oct 2017 08:17 pm
745 MVequez844 Nov 2017 01:59 pm
746 Baxa AlF11 Nov 2017 09:41 am
747 Totolento11 Nov 2017 07:41 pm
748 XxG4merOtakuxX3 Dec 2017 05:50 am
749 UND3RxOATH3 Dec 2017 07:52 am
750 AWolfG3 Dec 2017 05:26 pm
751 InaudibleHippo8 Dec 2017 07:16 am
752 Shoubladoubla9 Dec 2017 10:13 pm
753 FEAR EPIDEMIC19 Dec 2017 08:02 pm
754 UKCowboy7430 Dec 2017 02:05 am
755 DarkLord Zephyr2 Jan 2018 07:53 am
756 Thereoon8 Jan 2018 10:16 am
757 Mr SINCE189413 Jan 2018 09:01 am
758 stitchesnscars19 Feb 2018 12:10 pm
759 CrYPTIcCryNeZ26 Feb 2018 10:44 am
760 CircaCitadel12 Mar 2018 02:38 am
761 G4me Re4per1726 Mar 2018 03:39 pm
762 ToxicNidoking26 Apr 2018 11:58 pm
763 mrbl4ck500011 May 2018 08:58 pm
764 wigglesizking27 May 2018 10:03 pm
765 Nestige13 Jun 2018 08:21 pm
766 Massamo17 Jun 2018 11:13 am
767 glnge0322 Jun 2018 08:37 pm
768 TJR4322 Jun 2018 08:37 pm
769 X1E18X23 Jun 2018 07:38 am
770 Eclipse53862 Jul 2018 06:16 pm
771 EclipseTemplar42 Jul 2018 06:16 pm
772 O Desenhista14 Jul 2018 04:45 pm
773 Mazter0fPuppetz26 Aug 2018 02:09 am
774 SanderSiboSofie28 Aug 2018 09:51 pm
775 rtm sdrv5 Sep 2018 07:49 pm
776 iTomStallion27 Sep 2018 10:33 pm
777 xCALIIBANx198220 Oct 2018 08:33 pm
778 THEGAME WORLD25 Oct 2018 12:23 am
779 Living lMusic9 Dec 2018 07:13 pm
780 TonyStark98887 Jan 2019 12:04 pm
781 Scarface6661326 Jan 2019 07:02 am
782 MiIiIiN0429 Jan 2019 07:14 pm
783 ElectroNick35026 Mar 2019 04:16 pm
784 SA4B14 Jun 2019 11:25 pm
785 Agent Infernal14 Aug 2019 09:26 pm
786 AaronJamesx3820 Aug 2019 04:06 am
787 iCopesnuffdss27 Aug 2019 01:29 am
788 Dalej6630 Aug 2019 03:34 am
789 ZER0 5up3rh3r02 Sep 2019 06:37 am
790 NyT x EpiCBeaTz4 Sep 2019 04:03 pm
791 Tekjov21 Sep 2019 11:12 am
792 JoNNy BoJanGls1 Oct 2019 02:13 pm
793 LGS I Hitman2 Oct 2019 12:26 am
794 SleepyBoyMbandz15 Oct 2019 12:54 am
795 RedDevilNlnja18 Oct 2019 11:51 pm
796 II Salman gh II21 Nov 2019 09:22 am
98
1950
2428
325
50
Developer
Treyarch
Publisher
Activision
Platform
Xbox One